GW2259 Weather Reports


Display with metric or nautical units.
time (UTC)temp
F
wind
direction
speed
MPH
gust
MPH
rain 1hr
in
rain 24hr
in
rain mn
in
humidity
%
barometer
mb
20260510173035 85 154 7.0 13.0 0.00 0.00 0.00 57 1013.8
20260510171535 84 177 7.0 12.0 0.00 0.00 0.00 60 1013.8
20260510170034 83 119 7.0 12.0 0.00 0.00 0.00 62 1013.7
20260510164535 83 103 6.0 13.0 0.00 0.00 0.00 63 1013.8
20260510163036 82 110 7.0 11.0 0.00 0.00 0.00 64 1013.8
20260510161534 82 234 2.0 11.0 0.00 0.00 0.00 65 1014.1
20260510160037 81 131 5.0 11.0 0.00 0.00 0.00 68 1013.7
20260510154539 81 212 5.0 11.0 0.00 0.00 0.00 67 1013.7
20260510153038 81 101 2.0 8.0 0.00 0.00 0.00 68 1014.1
20260510151535 80 115 6.0 10.0 0.00 0.00 0.00 67 1014.0
20260510150039 80 83 7.0 11.0 0.00 0.00 0.00 71 1014.0
20260510144541 79 106 4.0 10.0 0.00 0.00 0.00 73 1014.0
20260510143035 78 210 7.0 16.0 0.00 0.00 0.00 74 1012.3
20260510141538 77 239 10.0 19.0 0.00 0.00 0.00 74 1012.1
20260510140036 77 216 7.0 12.0 0.00 0.00 0.00 76 1011.9
20260510134536 76 187 7.0 13.0 0.00 0.00 0.00 76 1011.7
20260510133043 75 210 6.0 14.0 0.00 0.00 0.00 79 1011.7
20260510131536 74 150 6.0 13.0 0.00 0.00 0.00 80 1011.8
20260510130032 73 216 7.0 10.0 0.00 0.00 0.00 79 1011.6
20260510124537 72 203 4.0 9.0 0.00 0.00 0.00 81 1011.6
20260510123035 71 208 4.0 10.0 0.00 0.00 0.00 82 1011.5
20260510121535 70 198 5.0 9.0 0.00 0.00 0.00 85 1011.4
20260510120035 68 201 5.0 14.0 0.00 0.00 0.00 87 1011.3
20260510114601 68 210 6.0 12.0 0.00 0.00 0.00 88 1011.1
20260510113051 67 216 3.0 7.0 0.00 0.00 0.00 88 1011.2
20260510111538 67 169 3.0 7.0 0.00 0.00 0.00 88 1011.2
20260510110040 68 188 5.0 10.0 0.00 0.00 0.00 87 1011.1
20260510104532 68 155 5.0 11.0 0.00 0.00 0.00 87 1010.9
20260510103032 68 188 3.0 8.0 0.00 0.00 0.00 86 1010.9
20260510101535 69 192 5.0 10.0 0.00 0.00 0.00 85 1010.8
20260510100055 69 176 5.0 10.0 0.00 0.00 0.00 85 1010.8
20260510094537 68 165 5.0 9.0 0.00 0.01 0.00 85 1010.7
20260510093035 68 142 5.0 8.0 0.00 0.01 0.00 85 1010.7
20260510091538 68 172 5.0 7.0 0.00 0.01 0.00 85 1010.7
20260510090037 68 153 5.0 9.0 0.00 0.01 0.00 85 1010.7
20260510084536 68 191 3.0 7.0 0.00 0.01 0.00 85 1010.6
20260510083041 69 165 4.0 7.0 0.00 0.01 0.00 84 1010.6
20260510081533 68 153 4.0 6.0 0.00 0.01 0.00 85 1010.7
20260510080031 68 176 3.0 5.0 0.00 0.01 0.00 86 1010.9
20260510074544 68 189 2.0 4.0 0.00 0.01 0.00 85 1010.9
20260510073035 68 142 2.0 5.0 0.00 0.01 0.00 84 1010.7
20260510071536 68 150 3.0 6.0 0.00 0.01 0.00 84 1010.6
20260510070037 68 146 3.0 5.0 0.00 0.01 0.00 83 1010.8
20260510064531 69 181 3.0 5.0 0.00 0.01 0.00 83 1010.9
20260510063037 69 171 3.0 5.0 0.00 0.01 0.00 82 1011.0
20260510061535 69 143 3.0 5.0 0.00 0.01 0.00 83 1011.0
20260510060040 69 174 3.0 5.0 0.00 0.01 0.00 84 1011.0
20260510054535 69 138 3.0 5.0 0.00 0.01 0.00 82 1011.0
20260510053038 70 143 5.0 6.0 0.00 0.01 0.00 81 1011.0
20260510051536 71 168 4.0 7.0 0.00 0.01 0.00 78 1011.1
20260510050037 72 143 6.0 9.0 0.00 0.01 0.00 78 1011.0
20260510044536 71 119 6.0 8.0 0.00 0.01 0.01 79 1011.0
20260510043035 72 127 4.0 6.0 0.00 0.01 0.01 78 1011.1
20260510041546 72 110 3.0 6.0 0.00 0.01 0.01 77 1011.2
20260510040037 73 88 3.0 5.0 0.00 0.01 0.01 75 1011.2
20260510034534 72 91 3.0 6.0 0.00 0.01 0.01 75 1011.0
20260510033039 72 120 3.0 5.0 0.00 0.01 0.01 76 1010.9
20260510031534 71 131 1.0 3.0 0.00 0.01 0.01 78 1010.7
20260510030038 72 143 1.0 1.0 0.00 0.01 0.01 75 1010.7
20260510024537 72 112 1.0 2.0 0.00 0.01 0.01 76 1010.5
20260510023035 73 0 0.0 2.0 0.00 0.01 0.01 76 1010.2
20260510021537 75 128 1.0 2.0 0.00 0.01 0.01 70 1010.0
20260510020036 78 94 1.0 2.0 0.00 0.01 0.01 60 1009.8
20260510014538 78 0 0.0 0.0 0.00 0.01 0.01 61 1009.6
20260510013040 79 0 0.0 0.0 0.00 0.01 0.01 63 1009.3
20260510011535 83 0 0.0 0.0 0.00 0.01 0.01 53 1009.2
20260510010032 88 0 0.0 0.0 0.00 0.01 0.01 49 1009.1
20260510004534 93 0 0.0 0.0 0.00 0.01 0.01 43 1009.1
20260510003046 93 0 0.0 0.0 0.00 0.01 0.01 40 1009.0
20260510001541 92 214 0.0 2.0 0.00 0.01 0.01 39 1009.1
20260510000043 90 219 2.0 4.0 0.00 0.01 0.01 39 1009.2
20260509234539 90 288 2.0 6.0 0.00 0.01 0.01 40 1009.1
20260509233034 92 298 2.0 5.0 0.00 0.01 0.01 39 1009.2
20260509231531 91 143 1.0 7.0 0.00 0.01 0.01 41 1009.2
20260509230036 90 200 4.0 7.0 0.00 0.01 0.01 42 1009.1
20260509224535 89 214 3.0 10.0 0.00 0.01 0.01 41 1009.2
20260509223035 89 277 4.0 7.0 0.00 0.01 0.01 45 1009.1
20260509221533 89 284 3.0 15.0 0.00 0.01 0.01 44 1009.2
20260509220054 88 197 3.0 6.0 0.00 0.01 0.01 50 1009.2
20260509214540 88 194 3.0 7.0 0.00 0.01 0.01 48 1009.3
20260509213039 87 193 4.0 9.0 0.00 0.01 0.01 49 1009.4
20260509211542 86 122 3.0 8.0 0.00 0.01 0.01 49 1009.5
20260509210036 85 275 4.0 8.0 0.00 0.01 0.01 51 1009.8
20260509204542 85 166 3.0 10.0 0.00 0.01 0.01 51 1010.3
20260509203037 85 201 2.0 7.0 0.00 0.01 0.01 52 1010.4
20260509201535 84 278 3.0 9.0 0.00 0.01 0.01 52 1010.7
20260509200041 84 221 3.0 7.0 0.00 0.01 0.01 56 1010.9
20260509194541 85 216 2.0 5.0 0.00 0.01 0.01 58 1011.1
20260509193041 83 218 5.0 9.0 0.00 0.01 0.01 58 1011.3
20260509191533 83 226 4.0 9.0 0.00 0.01 0.01 58 1011.4
20260509190032 83 221 4.0 7.0 0.00 0.01 0.01 62 1011.4
20260509184539 82 160 4.0 9.0 0.00 0.01 0.01 58 1011.5
20260509183036 81 238 6.0 10.0 0.00 0.01 0.01 61 1011.6
20260509181536 81 181 4.0 8.0 0.00 0.01 0.01 63 1011.9
20260509180033 81 273 2.0 8.0 0.00 0.01 0.01 68 1012.0
20260509174536 80 210 2.0 8.0 0.00 0.01 0.01 67 1012.2